Location: Wyoming Infrared Observatory
(41.0971°N, 105.9765°W)
Time: 09:02:42
(UTC-07:00)

Amateur Radio Satellites - All Passes

Search period start: 05 March 2015 08:32
Search period end: 06 March 2015 08:32
Location: Wyoming Infrared Observatory, 41.0971°N, 105.9765°W

Satellite Date Start Highest point End Downlink Frequencies (MHz)
Time Altitude Azimuth
GOMX 1 05 Mar 08:42:14 08:46:30 56° 99° (E) 08:50:35 467.674
SEEDS 05 Mar 08:48:19 08:52:27 52° 99° (E) 08:56:37 437.485
CINEMA 3 05 Mar 08:50:28 08:53:48 24° 94° (E) 08:57:12 145.822/145.860
BRITE-PL 05 Mar 08:52:11 08:56:39 72° 285° (WNW) 09:00:51 437.365/2234.400
CUBEBUG 2 05 Mar 08:52:48 08:54:50 14° 90° (E) 08:57:04 437.445
QB50P2 05 Mar 08:53:47 08:54:45 11° 63° (ENE) 08:55:58 145.880/145.840
CANX-2 05 Mar 08:56:07 09:00:24 85° 100° (E) 09:04:41 2200.000
UNISAT 6 05 Mar 09:01:41 09:05:07 24° 69° (ENE) 09:08:36 437.425
DELFI C3 05 Mar 09:03:09 09:06:06 19° 93° (E) 09:09:09 145.870
DOVE 4 05 Mar 09:03:19 09:07:32 66° 101° (E) 09:11:38 437.250
DUCHIFAT 1 05 Mar 09:04:59 09:07:08 14° 65° (ENE) 09:09:28 145.980
HO-68 05 Mar 09:07:02 09:14:17 83° 105° (ESE) 09:21:30 435.675
CUTE 1.7 + AOD 2 05 Mar 09:14:20 09:18:34 66° 285° (WNW) 09:22:48 437.475
FUNcube-1 05 Mar 09:16:55 09:19:36 17° 91° (E) 09:22:27 145.935
ZACube-1 05 Mar 09:19:07 09:21:59 18° 92° (E) 09:25:00 437.345
UKube-1 05 Mar 09:21:20 09:24:10 17° 92° (E) 09:27:08 .
TIGRISAT 05 Mar 09:24:37 09:28:41 40° 72° (ENE) 09:32:44 435.000
POPSAT HIP 1 05 Mar 09:26:19 09:29:42 24° 68° (ENE) 09:33:10 437.405
POLYITAN 1 05 Mar 09:27:14 09:30:41 25° 69° (ENE) 09:34:13 437.675
GONETS M04 05 Mar 09:34:07 09:42:34 55° 269° (W) 09:51:01
O/OREOS (USA 219) 05 Mar 09:34:59 09:39:07 32° 300° (WNW) 09:43:16 437.305
ANTELSAT 05 Mar 09:39:36 09:43:55 61° 74° (ENE) 09:48:11 437.575/2403.000
UWE-3 05 Mar 09:44:06 09:48:04 43° 98° (E) 09:52:05 435.000/436.395/437.385
AAUSAT CUBESAT 2 05 Mar 09:47:22 09:51:24 45° 287° (WNW) 09:55:24 437.432
NANOSAT C BR1 05 Mar 09:47:37 09:51:37 40° 72° (ENE) 09:55:38 145.865
COMPASS 1 05 Mar 09:52:27 09:56:19 35° 288° (WNW) 10:00:08 437.405
SO-50 05 Mar 09:57:20 10:02:17 75° 240° (WSW) 10:07:12 436.795
50 SAT 05 Mar 10:01:01 10:03:47 19° 93° (E) 10:06:41 437.505
Oscar 11 05 Mar 10:01:07 10:05:26 71° 285° (WNW) 10:09:45 145.826/435.025
RS-15 05 Mar 10:04:49 10:13:54 26° 256° (WSW) 10:22:42 29.354- 29.394
ISS 05 Mar 10:10:04 10:12:09 16° 347° (NNW) 10:14:12 145.825
DANDE 05 Mar 10:14:34 10:16:37 20° 74° (ENE) 10:18:44 436.750
BUGSAT 1 05 Mar 10:15:48 10:20:01 62° 75° (ENE) 10:24:15 437.445
QB50P1 05 Mar 10:20:56 10:25:13 85° 256° (WSW) 10:29:32 145.935-145.965
GOMX 1 05 Mar 10:22:08 10:24:11 13° 296° (WNW) 10:26:01 467.674
SEEDS 05 Mar 10:25:33 10:27:54 14° 294° (WNW) 10:30:05 437.485
QB50P2 05 Mar 10:25:52 10:30:09 73° 258° (WSW) 10:34:27 145.880/145.840
CUSAT 1 05 Mar 10:26:22 10:28:54 50° 79° (E) 10:31:37 437.405
CINEMA 3 05 Mar 10:27:31 10:31:04 27° 290° (WNW) 10:34:31 145.822/145.860
CUBEBUG 2 05 Mar 10:27:53 10:31:53 47° 287° (WNW) 10:35:54 437.445
DX 1 05 Mar 10:30:30 10:34:53 76° 285° (WNW) 10:39:12 434.975-435.025
HUMSAT D 05 Mar 10:34:08 10:38:15 69° 101° (E) 10:42:22 437.325/437.525
DELFI C3 05 Mar 10:37:43 10:41:24 32° 289° (WNW) 10:45:03 145.870
UNISAT 6 05 Mar 10:37:55 10:41:50 30° 264° (W) 10:45:39 437.425
DUCHIFAT 1 05 Mar 10:38:24 10:42:36 54° 260° (W) 10:46:48 145.980
CUBEBUG 1 05 Mar 10:41:09 10:44:42 24° 94° (E) 10:48:18 437.445
DOVE 4 05 Mar 10:43:33 10:44:49 11° 297° (WNW) 10:45:50 437.250
AISAT 05 Mar 10:47:23 10:51:50 68° 101° (ESE) 10:56:13 437.250
FUNcube-1 05 Mar 10:52:18 10:56:10 37° 288° (WNW) 11:00:01 145.935
ZACube-1 05 Mar 10:54:44 10:58:32 35° 288° (WNW) 11:02:19 437.345
VELOX 1 05 Mar 10:55:27 10:59:56 80° 103° (ESE) 11:04:21 145.980
HO-68 05 Mar 10:56:12 11:01:16 20° 303° (WNW) 11:06:05 435.675
UKube-1 05 Mar 10:56:27 11:00:34 41° 289° (WNW) 11:04:37 .
POPSAT HIP 1 05 Mar 11:01:41 11:05:29 30° 264° (W) 11:09:15 437.405
TIGRISAT 05 Mar 11:02:37 11:05:40 18° 268° (W) 11:08:32 435.000
POLYITAN 1 05 Mar 11:02:47 11:06:33 28° 265° (W) 11:10:15 437.675
ANTELSAT 05 Mar 11:19:30 11:21:11 12° 271° (W) 11:22:36 437.575/2403.000
UWE-3 05 Mar 11:21:44 11:24:20 16° 294° (WNW) 11:26:47 435.000/436.395/437.385
ESTCUBE 1 05 Mar 11:22:15 11:26:51 76° 102° (ESE) 11:31:23 437.505/2401.250
NANOSAT C BR1 05 Mar 11:24:45 11:27:41 17° 268° (W) 11:30:30 145.865
50 SAT 05 Mar 11:35:21 11:38:53 31° 289° (WNW) 11:42:24 437.505
Oscar 19 05 Mar 11:43:52 11:47:54 24° 66° (ENE) 11:52:02 437.125/150
ISS 05 Mar 11:47:49 11:49:34 14° 7° (N) 11:51:20 145.825
ITAMSAT 1 05 Mar 11:52:57 11:53:22 10° 58° (ENE) 11:54:07 435.822/435.867
BUGSAT 1 05 Mar 11:54:31 11:55:59 11° 272° (W) 11:57:13 437.445
HUMSAT D 05 Mar 12:12:40 12:13:33 10° 296° (WNW) 12:14:14 437.325/437.525
CUBEBUG 1 05 Mar 12:17:13 12:21:07 30° 290° (WNW) 12:24:54 437.445
AISAT 05 Mar 12:25:59 12:27:57 12° 297° (WNW) 12:29:43 437.250
TISAT 1 05 Mar 12:29:51 12:34:06 87° 103° (ESE) 12:38:18 437.305
ITUPSAT 1 05 Mar 12:33:51 12:36:23 14° 89° (E) 12:39:07 437.325
VELOX 1 05 Mar 12:34:50 12:35:55 11° 298° (WNW) 12:36:46 145.980
SPROUT 05 Mar 12:36:54 12:41:12 69° 285° (WNW) 12:45:26 437.525
ESTCUBE 1 05 Mar 13:01:28 13:03:10 12° 298° (WNW) 13:04:38 437.505/2401.250
Gurwin Techsat 1B 05 Mar 13:17:27 13:22:29 46° 71° (ENE) 13:27:34 435.225
Oscar 19 05 Mar 13:22:12 13:27:03 41° 262° (W) 13:31:54 437.125/150
ISS 05 Mar 13:23:46 13:26:44 33° 27° (NNE) 13:29:44 145.825
ITAMSAT 1 05 Mar 13:26:53 13:32:05 75° 75° (ENE) 13:37:21 435.822/435.867
SWISSCUBE 05 Mar 13:32:30 13:37:18 64° 101° (E) 13:42:04 437.505
BEESAT 05 Mar 13:40:32 13:45:21 72° 102° (ESE) 13:50:08 436.000
HORYU 2 05 Mar 14:04:39 14:08:32 32° 70° (ENE) 14:12:30 437.375
ITUPSAT 1 05 Mar 14:09:59 14:14:46 60° 286° (WNW) 14:19:29 437.325
AO-7 05 Mar 14:14:03 14:21:36 41° 62° (ENE) 14:29:16 29.400- 29.500
YUBILEINY 05 Mar 14:30:56 14:37:28 26° 83° (E) 14:44:22 435.215
STARS 05 Mar 14:37:32 14:41:32 34° 97° (E) 14:45:32 437.465
KKS-1 05 Mar 14:38:15 14:42:37 55° 100° (E) 14:46:58 437.445
VERMONT LUNAR 05 Mar 14:53:54 14:54:57 11° 146° (SSE) 14:56:07 437.305
JAS-2 05 Mar 14:56:59 15:02:04 37° 66° (ENE) 15:07:49 435.910
Gurwin Techsat 1B 05 Mar 14:58:34 15:02:44 22° 268° (W) 15:06:46 435.225
ISS 05 Mar 15:00:15 15:03:09 30° 224° (SW) 15:06:02 145.825
ITAMSAT 1 05 Mar 15:09:47 15:12:17 13° 272° (W) 15:14:28 435.822/435.867
SWISSCUBE 05 Mar 15:11:54 15:14:42 15° 297° (WNW) 15:17:18 437.505
BEESAT 3 05 Mar 15:17:05 15:19:09 14° 110° (ESE) 15:21:24 437.485
BEESAT 05 Mar 15:20:13 15:22:40 14° 298° (WNW) 15:24:54 436.000
HORYU 2 05 Mar 15:41:41 15:45:17 23° 266° (W) 15:48:47 437.375
BEESAT 2 05 Mar 15:44:53 15:48:11 24° 113° (ESE) 15:51:36 435.950
CUTE-I 05 Mar 15:51:27 15:52:39 11° 58° (ENE) 15:54:11 437.470
AUBIESAT-1 05 Mar 16:01:02 16:04:20 21° 99° (E) 16:07:54 437.475
AIST 2 05 Mar 16:01:39 16:03:45 14° 110° (ESE) 16:06:04 435.215
M-CUBED/EXP-1 PRIME 05 Mar 16:01:40 16:05:12 24° 100° (E) 16:08:59 437.505
AO-7 05 Mar 16:06:23 16:14:21 47° 260° (W) 16:22:16 29.400- 29.500
MOZHAYETS 4 05 Mar 16:12:45 16:16:47 29° 95° (E) 16:20:52
STARS 05 Mar 16:14:26 16:17:51 22° 293° (WNW) 16:21:08 437.465
KKS-1 05 Mar 16:16:18 16:18:52 15° 296° (WNW) 16:21:15 437.445
YUBILEINY 05 Mar 16:24:55 16:33:38 68° 281° (WNW) 16:42:25 435.215
VERMONT LUNAR 05 Mar 16:29:01 16:32:19 41° 161° (SSE) 16:35:39 437.305
JAS-2 05 Mar 16:42:19 16:47:18 32° 268° (W) 16:52:43 435.910
BEESAT 3 05 Mar 16:52:49 16:56:50 54° 306° (NW) 17:00:55 437.485
PHONESAT 2.4 05 Mar 16:56:13 16:59:35 36° 158° (SSE) 17:02:57 2401.200-2431.200
Cubesat XI-IV 05 Mar 17:18:39 17:23:58 67° 74° (ENE) 17:29:20 437.490
BEESAT 2 05 Mar 17:22:28 17:26:14 33° 310° (NW) 17:30:02 435.950
CUTE-I 05 Mar 17:26:36 17:31:57 78° 75° (ENE) 17:37:22 437.470
AUBIESAT-1 05 Mar 17:35:12 17:39:17 40° 293° (WNW) 17:43:35 437.475
M-CUBED/EXP-1 PRIME 05 Mar 17:36:10 17:40:09 35° 293° (WNW) 17:44:20 437.505
AIST 2 05 Mar 17:37:44 17:41:56 58° 305° (NW) 17:46:12 435.215
PRISM 05 Mar 17:42:25 17:45:13 18° 92° (E) 17:48:09 437.425
AIST 1 05 Mar 17:45:24 17:49:49 70° 81° (E) 17:54:11
MOZHAYETS 4 05 Mar 17:50:00 17:53:59 28° 291° (WNW) 17:57:53
HO-68 05 Mar 17:53:10 17:55:34 12° 51° (NE) 17:58:24 435.675
O/OREOS (USA 219) 05 Mar 18:05:21 18:09:48 47° 63° (ENE) 18:14:13 437.305
VERMONT LUNAR 05 Mar 18:06:36 18:10:05 82° 180° (S) 18:13:36 437.305
STRAND 1 05 Mar 18:09:00 18:12:57 23° 93° (E) 18:17:01 437.568
CUBESAT XI-V 05 Mar 18:20:43 18:25:19 49° 99° (E) 18:29:52 437.345
BRITE-PL 05 Mar 18:25:40 18:29:02 17° 65° (ENE) 18:32:31 437.365/2234.400
YUBILEINY 05 Mar 18:28:24 18:32:38 13° 305° (NW) 18:36:16 435.215
PHONESAT 2.4 05 Mar 18:34:12 18:37:51 79° 176° (S) 18:41:30 2401.200-2431.200
Cubesat XI-IV 05 Mar 19:01:25 19:04:39 15° 271° (W) 19:07:39 437.490
PCSat 05 Mar 19:01:59 19:06:26 28° 109° (ESE) 19:11:02 145.827
AAUSAT CUBESAT 2 05 Mar 19:06:06 19:06:57 11° 64° (ENE) 19:08:02 437.432
COMPASS 1 05 Mar 19:10:06 19:12:10 14° 66° (ENE) 19:14:25 437.405
CUTE-I 05 Mar 19:10:10 19:12:46 13° 273° (W) 19:15:02 437.470
PRISM 05 Mar 19:16:58 19:20:56 39° 288° (WNW) 19:24:50 437.425
HO-68 05 Mar 19:35:04 19:42:03 62° 70° (ENE) 19:49:07 435.675
SEEDS 05 Mar 19:40:37 19:44:24 36° 72° (ENE) 19:48:16 437.485
VERMONT LUNAR 05 Mar 19:44:29 19:47:56 59° 195° (SSW) 19:51:22 437.305
O/OREOS (USA 219) 05 Mar 19:45:52 19:48:53 17° 259° (W) 19:51:41 437.305
STRAND 1 05 Mar 19:47:30 19:52:23 43° 290° (WNW) 19:57:11 437.568
CANX-2 05 Mar 19:48:59 19:53:07 59° 75° (ENE) 19:57:17 2200.000
GOMX 1 05 Mar 19:49:13 19:54:30 65° 74° (ENE) 19:59:31 467.674
CUBEBUG 2 05 Mar 19:51:46 19:53:52 14° 66° (ENE) 19:56:08 437.445
CINEMA 3 05 Mar 19:52:09 19:55:57 25° 70° (ENE) 19:59:41 145.822/145.860
DELFI C3 05 Mar 19:52:31 19:54:18 13° 65° (ENE) 19:56:16 145.870
CUBESAT XI-V 05 Mar 19:59:12 20:02:25 18° 295° (WNW) 20:05:28 437.345
BRITE-PL 05 Mar 20:01:31 20:07:07 69° 259° (W) 20:12:28 437.365/2234.400
CUTE 1.7 + AOD 2 05 Mar 20:06:59 20:11:11 87° 77° (ENE) 20:15:26 437.475
DOVE 4 05 Mar 20:08:04 20:13:08 69° 75° (ENE) 20:17:56 437.250
PHONESAT 2.4 05 Mar 20:12:38 20:16:16 67° 191° (SSW) 20:19:53 2401.200-2431.200
FUNcube-1 05 Mar 20:13:35 20:15:58 15° 66° (ENE) 20:18:30 145.935
ZACube-1 05 Mar 20:15:52 20:18:29 16° 67° (ENE) 20:21:13 437.345
UKube-1 05 Mar 20:16:52 20:19:28 16° 65° (ENE) 20:22:15 .
AAUSAT CUBESAT 2 05 Mar 20:37:59 20:42:06 69° 259° (W) 20:46:15 437.432
GONETS M04 05 Mar 20:38:56 20:46:33 37° 87° (E) 20:54:21
UWE-3 05 Mar 20:41:18 20:45:19 36° 72° (ENE) 20:49:18 435.000/436.395/437.385
COMPASS 1 05 Mar 20:43:28 20:47:30 51° 261° (W) 20:51:34 437.405
PCSat 05 Mar 20:44:32 20:49:41 42° 306° (NW) 20:54:51 145.827
50 SAT 05 Mar 20:49:06 20:50:41 12° 65° (ENE) 20:52:27 437.505
Oscar 11 05 Mar 20:55:35 20:59:53 87° 78° (ENE) 21:04:13 145.826/435.025
SEEDS 05 Mar 21:17:25 21:20:24 18° 268° (W) 21:23:17 437.485
VERMONT LUNAR 05 Mar 21:22:55 21:25:28 19° 209° (SSW) 21:27:57 437.305
HO-68 05 Mar 21:24:34 21:30:20 25° 268° (W) 21:35:53 435.675
DELFI C3 05 Mar 21:25:10 21:29:06 52° 260° (W) 21:33:05 145.870
DX 1 05 Mar 21:25:46 21:30:10 89° 252° (WSW) 21:34:35 434.975-435.025
CUBEBUG 2 05 Mar 21:25:46 21:30:12 59° 260° (W) 21:34:29 437.445
HUMSAT D 05 Mar 21:26:02 21:30:03 47° 74° (ENE) 21:34:04 437.325/437.525
CANX-2 05 Mar 21:28:04 21:29:32 11° 272° (W) 21:30:44 2200.000
CINEMA 3 05 Mar 21:28:48 21:33:04 32° 264° (W) 21:37:08 145.822/145.860
GOMX 1 05 Mar 21:29:51 21:33:03 15° 271° (W) 21:35:55 467.674
ANTELSAT 05 Mar 21:33:36 21:35:15 12° 89° (E) 21:37:09 437.575/2403.000
CUBEBUG 1 05 Mar 21:37:38 21:40:59 22° 67° (ENE) 21:44:25 437.445
AISAT 05 Mar 21:45:06 21:49:31 60° 74° (ENE) 21:53:59 437.250
FUNcube-1 05 Mar 21:47:47 21:52:00 49° 261° (W) 21:56:09 145.935
DOVE 4 05 Mar 21:48:51 21:51:22 13° 271° (W) 21:53:32 437.250
ZACube-1 05 Mar 21:50:23 21:54:35 45° 262° (W) 21:58:41 437.345
UKube-1 05 Mar 21:51:04 21:55:17 48° 260° (W) 21:59:32 .
PHONESAT 2.4 05 Mar 21:51:24 21:54:24 24° 207° (SSW) 21:57:22 2401.200-2431.200
VELOX 1 05 Mar 21:52:52 21:57:20 71° 75° (ENE) 22:01:49 145.980
QB50P1 05 Mar 22:07:42 22:10:11 16° 91° (E) 22:12:48 145.935-145.965
QB50P2 05 Mar 22:12:31 22:15:22 18° 92° (E) 22:18:21 145.880/145.840
RS-15 05 Mar 22:14:22 22:24:46 55° 113° (ESE) 22:35:24 29.354- 29.394
UWE-3 05 Mar 22:18:47 22:22:01 19° 267° (W) 22:25:06 435.000/436.395/437.385
50 SAT 05 Mar 22:21:25 22:25:18 53° 260° (W) 22:29:11 437.505
ESTCUBE 1 05 Mar 22:21:42 22:26:12 69° 74° (ENE) 22:30:44 437.505/2401.250
DUCHIFAT 1 05 Mar 22:24:04 22:27:24 23° 94° (E) 22:30:48 145.980
UNISAT 6 05 Mar 22:29:17 22:33:30 51° 100° (E) 22:37:47 437.425
GONETS M04 05 Mar 22:34:57 22:43:16 47° 286° (WNW) 22:51:33
POPSAT HIP 1 05 Mar 22:46:42 22:50:43 42° 98° (E) 22:54:43 437.405
POLYITAN 1 05 Mar 22:47:59 22:52:02 44° 99° (E) 22:56:05 437.675
TIGRISAT 05 Mar 22:52:34 22:56:53 89° 284° (WNW) 23:01:15 435.000
HUMSAT D 05 Mar 23:03:55 23:06:10 14° 270° (W) 23:08:13 437.325/437.525
ANTELSAT 05 Mar 23:08:14 23:12:29 58° 286° (WNW) 23:16:47 437.575/2403.000
NANOSAT C BR1 05 Mar 23:08:19 23:12:33 77° 102° (ESE) 23:16:44 145.865
CUBEBUG 1 05 Mar 23:13:03 23:17:09 36° 263° (W) 23:21:17 437.445
TISAT 1 05 Mar 23:21:52 23:26:07 64° 74° (ENE) 23:30:21 437.305
DANDE 05 Mar 23:24:23 23:30:46 59° 98° (E) 23:35:33 436.750
AISAT 05 Mar 23:24:29 23:26:37 13° 271° (W) 23:28:30 437.250
SPROUT 05 Mar 23:30:42 23:35:03 88° 80° (E) 23:39:24 437.525
VELOX 1 05 Mar 23:33:22 23:34:30 11° 272° (W) 23:35:20 145.980
CUSAT 1 05 Mar 23:33:29 23:39:29 88° 98° (E) 23:43:55 437.405
BUGSAT 1 05 Mar 23:33:48 23:37:57 73° 285° (WNW) 23:42:01 437.445
BEESAT 3 05 Mar 23:35:45 23:37:24 12° 38° (NE) 23:39:12 437.485
ITUPSAT 1 05 Mar 23:40:48 23:43:54 18° 64° (ENE) 23:47:10 437.325
QB50P1 05 Mar 23:42:19 23:46:21 43° 288° (WNW) 23:50:19 145.935-145.965
QB50P2 05 Mar 23:47:33 23:51:28 37° 289° (WNW) 23:55:21 145.880/145.840
DUCHIFAT 1 05 Mar 23:59:37 00:03:17 29° 290° (WNW) 00:06:52 145.980
ESTCUBE 1 06 Mar 00:02:11 00:03:40 11° 273° (W) 00:04:52 437.505/2401.250
BEESAT 2 06 Mar 00:04:29 00:07:23 18° 43° (NE) 00:10:20 435.950
UNISAT 6 06 Mar 00:07:25 00:09:58 15° 294° (WNW) 00:12:21 437.425
SO-50 06 Mar 00:12:01 00:16:11 36° 115° (ESE) 00:20:32 436.795
AIST 2 06 Mar 00:22:44 00:24:39 13° 38° (NE) 00:26:42 435.215
POPSAT HIP 1 06 Mar 00:23:33 00:26:19 17° 294° (WNW) 00:28:58 437.405
POLYITAN 1 06 Mar 00:24:59 00:27:39 16° 294° (WNW) 00:30:11 437.675
RS-15 06 Mar 00:27:02 00:37:28 47° 317° (NW) 00:48:02 29.354- 29.394
SWISSCUBE 06 Mar 00:38:57 00:43:42 73° 74° (ENE) 00:48:31 437.505
YUBILEINY 06 Mar 00:41:59 00:44:40 12° 53° (NE) 00:48:02 435.215
BEESAT 06 Mar 00:46:52 00:51:38 80° 75° (ENE) 00:56:27 436.000
TISAT 1 06 Mar 01:01:12 01:02:26 11° 272° (W) 01:03:24 437.305
DANDE 06 Mar 01:10:13 01:14:10 17° 288° (WNW) 01:17:19 436.750
BEESAT 3 06 Mar 01:12:02 01:16:12 88° 57° (ENE) 01:20:16 437.485
ITUPSAT 1 06 Mar 01:16:46 01:21:26 52° 260° (W) 01:26:09 437.325
Oscar 19 06 Mar 01:33:24 01:38:32 70° 103° (ESE) 01:43:39 437.125/150
STARS 06 Mar 01:34:37 01:38:29 31° 70° (ENE) 01:42:25 437.465
Gurwin Techsat 1B 06 Mar 01:34:40 01:38:11 18° 90° (E) 01:41:54 435.225
KKS-1 06 Mar 01:36:17 01:40:36 50° 73° (ENE) 01:44:57 437.445
ITAMSAT 1 06 Mar 01:40:25 01:44:46 27° 94° (E) 01:49:10 435.822/435.867
BEESAT 2 06 Mar 01:41:50 01:45:53 52° 242° (WSW) 01:49:51 435.950
SO-50 06 Mar 01:52:43 01:56:48 29° 314° (NW) 02:00:58 436.795
AIST 2 06 Mar 01:59:41 02:03:58 88° 57° (ENE) 02:08:10 435.215
SWISSCUBE 06 Mar 02:20:23 02:22:12 12° 272° (W) 02:23:43 437.505
BEESAT 06 Mar 02:29:23 02:30:13 10° 273° (W) 02:30:41 436.000
YUBILEINY 06 Mar 02:35:09 02:43:55 62° 78° (ENE) 02:52:38 435.215
RS-15 06 Mar 02:45:39 02:53:40 22° 349° (N) 03:01:46 29.354- 29.394
AUBIESAT-1 06 Mar 02:50:36 02:53:06 20° 63° (ENE) 02:55:47 437.475
M-CUBED/EXP-1 PRIME 06 Mar 02:51:40 02:54:22 23° 64° (ENE) 02:57:14 437.505
STARS 06 Mar 03:11:21 03:15:00 24° 266° (W) 03:18:34 437.465
Gurwin Techsat 1B 06 Mar 03:13:23 03:18:36 56° 288° (WNW) 03:23:47 435.225
Oscar 19 06 Mar 03:14:22 03:17:22 15° 298° (WNW) 03:20:10 437.125/150
KKS-1 06 Mar 03:14:53 03:17:36 15° 270° (W) 03:20:08 437.445
MOZHAYETS 4 06 Mar 03:14:56 03:18:45 27° 69° (ENE) 03:22:40
ITAMSAT 1 06 Mar 03:19:34 03:24:23 37° 291° (WNW) 03:29:07 435.822/435.867
HORYU 2 06 Mar 03:31:59 03:36:25 66° 102° (ESE) 03:40:51 437.375
JAS-2 06 Mar 03:49:21 03:56:25 41° 95° (E) 04:03:46 435.910
PCSat 06 Mar 03:49:25 03:53:48 25° 47° (NE) 03:58:16 145.827
AO-7 06 Mar 04:07:25 04:15:38 62° 103° (ESE) 04:23:49 29.400- 29.500
AUBIESAT-1 06 Mar 04:25:15 04:27:57 22° 261° (W) 04:30:42 437.475
M-CUBED/EXP-1 PRIME 06 Mar 04:26:55 04:29:22 19° 262° (W) 04:31:50 437.505
YUBILEINY 06 Mar 04:32:55 04:40:12 29° 276° (W) 04:47:13 435.215
PRISM 06 Mar 04:33:49 04:35:54 14° 64° (ENE) 04:38:10 437.425
MOZHAYETS 4 06 Mar 04:51:57 04:55:56 29° 265° (W) 04:59:54
RS-15 06 Mar 05:02:17 05:11:16 27° 24° (NNE) 05:20:47 29.354- 29.394
HORYU 2 06 Mar 05:10:31 05:12:37 13° 297° (WNW) 05:14:29 437.375
CUBESAT XI-V 06 Mar 05:23:56 05:28:26 48° 72° (ENE) 05:33:00 437.345
STRAND 1 06 Mar 05:24:39 05:29:10 33° 68° (ENE) 05:33:48 437.568
PCSat 06 Mar 05:32:17 05:37:34 53° 246° (WSW) 05:42:49 145.827
JAS-2 06 Mar 05:34:20 05:41:26 45° 292° (WNW) 05:48:44 435.910
Cubesat XI-IV 06 Mar 05:36:38 05:41:05 27° 94° (E) 05:45:36 437.490
CUTE-I 06 Mar 05:44:18 05:48:58 31° 95° (E) 05:53:43 437.470
AO-7 06 Mar 06:00:56 06:08:00 32° 302° (WNW) 06:14:53 29.400- 29.500
PRISM 06 Mar 06:06:58 06:11:01 52° 260° (W) 06:15:07 437.425
AIST 1 06 Mar 06:14:49 06:18:54 41° 93° (E) 06:23:04
GONETS M04 06 Mar 06:49:31 06:54:56 18° 59° (ENE) 07:00:50
CUBESAT XI-V 06 Mar 07:03:00 07:06:12 17° 270° (W) 07:09:15 437.345
STRAND 1 06 Mar 07:03:53 07:08:24 30° 265° (W) 07:12:53 437.568
RS-15 06 Mar 07:14:56 07:26:20 69° 52° (NE) 07:38:16 29.354- 29.394
Cubesat XI-IV 06 Mar 07:16:20 07:21:20 39° 291° (WNW) 07:26:15 437.490
CUTE-I 06 Mar 07:24:16 07:29:05 34° 292° (WNW) 07:33:49 437.470
CANX-2 06 Mar 07:37:23 07:37:57 10° 87° (E) 07:38:47 2200.000
ISS 06 Mar 07:39:01 07:42:13 82° 146° (SSE) 07:45:28 145.825
GOMX 1 06 Mar 07:53:09 07:55:38 16° 90° (E) 07:58:16 467.674
CUTE 1.7 + AOD 2 06 Mar 07:53:45 07:56:10 15° 90° (E) 07:58:45 437.475
AIST 1 06 Mar 07:53:53 07:56:50 17° 290° (WNW) 07:59:40
BRITE-PL 06 Mar 08:07:37 08:11:41 35° 96° (E) 08:15:34 437.365/2234.400
DOVE 4 06 Mar 08:09:03 08:11:32 16° 90° (E) 08:14:08 437.250
O/OREOS (USA 219) 06 Mar 08:17:14 08:21:42 56° 109° (ESE) 08:26:13 437.305
AAUSAT CUBESAT 2 06 Mar 08:22:11 08:25:07 19° 92° (E) 08:28:10 437.432
